User: anonymous   Login
Location: Unspecified
(0.0000°N, 0.0000°E)
Time: 18:11:38
(UTC+00:00)
Language:

PERSEUS M2 - Orbit

View from above orbital plane
View from above orbital plane
View from above satellite
View from above satellite

Ground track
Ground track

The orbit data is extracted from the following two-line orbital elements,

1 40037U 14033AD  25013.08166554  .00002670  00000-0  26486-3 0  9995
2 40037  97.9436 311.0705 0011540 217.3497 142.6921 14.92607230573616
Epoch (UTC): 13 January 2025 01:57:35
Eccentricity: 0.0011540
inclination: 97.9436°
perigee height: 582 km
apogee height: 598 km
right ascension of ascending node: 311.0705°
argument of perigee: 217.3497°
revolutions per day: 14.92607230
mean anomaly at epoch: 142.6921°
orbit number at epoch: 57361

The dashed part of the orbit path shows where the satellite is in the earth's shadow,  

DLR